SL-16 DEB, 22296

Orbit data source: Space-Track

SL-16 DEB, 22296 is space debris in LEO originally from a launch on Fri, 25 Dec 1992 UTC launched from the Tyuratam Missile And Space Complex (TTMTR). Debris objects in space refer to the collection of defunct objects orbiting the Earth. Examples of debris include non-operational satellites, rocket bodies, and fragments generated from explosions, collisions, or faulty payload assembly.

Loading next visibility...
Identifier
22296, 1992-093L
Orbit
LEO
Country
Flag of CISCIS
Related business
Manufacturer
Unknown
Mission
Spacecraft
Bus & Motor
Unknown
Mass
Unknown
Launch date (UTC)
1992-12-25 (33 years ago)
Launch vehicle
Unknown
Launch site
Tyuratam Missile And Space Complex (TTMTR)
Object type
Payload
Rocket body
Debris
Shape & HBR
Unknown shape, 0.1 m
Radar Cross Section
Small (<0.1 m²)

Expand to show TLE details & history
Last TLE update: 12 hours ago

TLE from 12 hours ago
0 SL-16 DEB
1 22296U 92093L   26126.98776654  .00024437  00000-0  21195-2 0  9993
2 22296  70.8242 326.2255 0022553  40.6665  83.0251 14.96812150731732
Epoch: 2026-05-06T23:42Z
TLE epoch observation values (Epoch: 2026-05-06T23:42:23.029Z)
Latitude
51.69921°
Longitude
-100.18269°
Altitude
582.699 km
Speed
7.575 km/s
True Right ascension
08h 01m 00s
True Declination
51° 31' 39"
Sunlit
Object was in daylight at epoch
Visualization orbit readout
Latitude
Unknown
Longitude
Unknown
Altitude
Unknown
Speed
Unknown
Apparent Right ascension
Unknown
Apparent Declination
Unknown
Sunlit
N/A
Visualization observer readout
Local Sidereal Time
20:05:45
Azimuth
Unknown
Elevation
Unknown
Doppler factor
Unknown
Orbital elements
Apogee altitude
590.298 km
Perigee altitude
558.936 km
Semi-major axis
6,952.754 km
Eccentricity
0.00226
Inclination
70.8242°
RAAN
326.2255°
Arg. of periapsis
40.6665°
True anomaly
83.28171°
Mean anomaly
83.0251°
Eccentric anomaly
83.1534°
Mean motion
3.74376 °/min
Orbital period
96.16 mins
BSTAR
0.0021195
Loading maneuver chart data...
Computing Atmospheric mass density...

Documentation

Showing up to 5 results
|